Time,TemperatureF,DewpointF,PressureIn,WindDirection,WindDirectionDegrees,WindSpeedMPH,WindSpeedGustMPH,Humidity,HourlyPrecipIn,Conditions,Clouds,dailyrainin,SoftwareType,DateUTC
2013-03-08 00:02:00,54.1,31.5,30.07,SE,132,5.0,6.0,42,0.00,,,0.00,Wunderground v.1.15,2013-03-08 06:02:00,
2013-03-08 00:09:00,53.9,31.9,30.07,SSE,156,5.0,6.0,43,0.00,,,0.00,Wunderground v.1.15,2013-03-08 06:09:00,
2013-03-08 00:14:00,53.8,31.8,30.07,South,178,4.0,5.0,43,0.00,,,0.00,Wunderground v.1.15,2013-03-08 06:14:00,
2013-03-08 00:20:00,53.8,31.8,30.07,SSW,202,5.0,5.0,43,0.00,,,0.00,Wunderground v.1.15,2013-03-08 06:20:00,
2013-03-08 00:26:00,53.7,31.7,30.07,South,178,5.0,9.0,43,0.00,,,0.00,Wunderground v.1.15,2013-03-08 06:26:00,
2013-03-08 00:32:00,53.6,31.6,30.07,South,187,5.0,5.0,43,0.00,,,0.00,Wunderground v.1.15,2013-03-08 06:32:00,
2013-03-08 00:39:00,53.4,31.4,30.08,SSE,165,3.0,12.0,43,0.00,,,0.00,Wunderground v.1.15,2013-03-08 06:39:00,
2013-03-08 00:50:00,53.4,31.4,30.08,South,181,5.0,5.0,43,0.00,,,0.00,Wunderground v.1.15,2013-03-08 06:50:00,
2013-03-08 00:56:00,53.4,31.4,30.08,South,182,5.0,5.0,43,0.00,,,0.00,Wunderground v.1.15,2013-03-08 06:56:00,
2013-03-08 01:02:00,53.3,31.9,30.07,South,169,5.0,5.0,44,0.00,,,0.00,Wunderground v.1.15,2013-03-08 07:02:00,
2013-03-08 01:09:00,53.2,31.8,30.07,South,175,3.0,5.0,44,0.00,,,0.00,Wunderground v.1.15,2013-03-08 07:09:00,
2013-03-08 01:14:00,53.2,31.8,30.07,South,189,3.0,3.0,44,0.00,,,0.00,Wunderground v.1.15,2013-03-08 07:14:00,
2013-03-08 01:20:00,53.2,31.8,30.08,SSE,160,3.0,5.0,44,0.00,,,0.00,Wunderground v.1.15,2013-03-08 07:20:00,
2013-03-08 01:26:00,53.1,31.7,30.08,SE,130,4.0,5.0,44,0.00,,,0.00,Wunderground v.1.15,2013-03-08 07:26:00,
2013-03-08 01:32:00,52.8,31.5,30.08,South,182,3.0,4.0,44,0.00,,,0.00,Wunderground v.1.15,2013-03-08 07:32:00,
2013-03-08 01:39:00,52.3,31.6,30.08,SSE,152,3.0,4.0,45,0.00,,,0.00,Wunderground v.1.15,2013-03-08 07:39:00,
2013-03-08 01:44:00,52.0,31.8,30.08,SSE,150,3.0,6.0,46,0.00,,,0.00,Wunderground v.1.15,2013-03-08 07:44:00,
2013-03-08 01:50:00,51.7,31.6,30.09,SE,140,3.0,4.0,46,0.00,,,0.00,Wunderground v.1.15,2013-03-08 07:50:00,
2013-03-08 01:56:00,51.4,31.3,30.08,SE,125,3.0,5.0,46,0.00,,,0.00,Wunderground v.1.15,2013-03-08 07:56:00,
2013-03-08 02:02:00,51.2,31.6,30.09,SE,134,3.0,4.0,47,0.00,,,0.00,Wunderground v.1.15,2013-03-08 08:02:00,
2013-03-08 02:09:00,50.9,31.4,30.08,SE,142,2.0,4.0,47,0.00,,,0.00,Wunderground v.1.15,2013-03-08 08:09:00,
2013-03-08 02:14:00,50.8,31.3,30.08,SSE,148,2.0,5.0,47,0.00,,,0.00,Wunderground v.1.15,2013-03-08 08:14:00,
2013-03-08 02:20:00,50.8,31.3,30.08,SSE,155,3.0,3.0,47,0.00,,,0.00,Wunderground v.1.15,2013-03-08 08:20:00,
2013-03-08 02:26:00,50.8,31.8,30.08,SE,142,3.0,4.0,48,0.00,,,0.00,Wunderground v.1.15,2013-03-08 08:26:00,
2013-03-08 02:32:00,50.8,31.8,30.08,SE,142,2.0,3.0,48,0.00,,,0.00,Wunderground v.1.15,2013-03-08 08:32:00,
2013-03-08 02:39:00,50.7,31.7,30.08,South,182,2.0,5.0,48,0.00,,,0.00,Wunderground v.1.15,2013-03-08 08:39:00,
2013-03-08 02:44:00,50.7,31.7,30.08,SE,142,3.0,7.0,48,0.00,,,0.00,Wunderground v.1.15,2013-03-08 08:44:00,
2013-03-08 02:50:00,50.6,31.6,30.08,SE,144,3.0,3.0,48,0.00,,,0.00,Wunderground v.1.15,2013-03-08 08:50:00,
2013-03-08 02:56:00,50.6,31.6,30.08,SE,146,3.0,4.0,48,0.00,,,0.00,Wunderground v.1.15,2013-03-08 08:56:00,
2013-03-08 03:02:00,50.5,32.0,30.07,South,175,3.0,3.0,49,0.00,,,0.00,Wunderground v.1.15,2013-03-08 09:02:00,
2013-03-08 03:09:00,50.5,32.0,30.07,South,169,3.0,5.0,49,0.00,,,0.00,Wunderground v.1.15,2013-03-08 09:09:00,
2013-03-08 03:14:00,50.5,32.0,30.07,SSE,167,3.0,7.0,49,0.00,,,0.00,Wunderground v.1.15,2013-03-08 09:14:00,
2013-03-08 03:20:00,50.5,32.5,30.07,South,182,4.0,4.0,50,0.00,,,0.00,Wunderground v.1.15,2013-03-08 09:20:00,
2013-03-08 03:26:00,50.5,32.5,30.07,South,178,4.0,6.0,50,0.00,,,0.00,Wunderground v.1.15,2013-03-08 09:26:00,
2013-03-08 03:32:00,50.6,32.6,30.07,SSE,159,4.0,4.0,50,0.00,,,0.00,Wunderground v.1.15,2013-03-08 09:32:00,
2013-03-08 03:38:00,50.7,32.2,30.07,SE,144,5.0,12.0,49,0.00,,,0.00,Wunderground v.1.15,2013-03-08 09:38:00,
2013-03-08 03:44:00,50.7,32.7,30.07,SSE,163,6.0,9.0,50,0.00,,,0.00,Wunderground v.1.15,2013-03-08 09:44:00,
2013-03-08 03:50:00,50.6,32.6,30.07,SE,134,5.0,5.0,50,0.00,,,0.00,Wunderground v.1.15,2013-03-08 09:50:00,
2013-03-08 03:56:00,50.4,32.4,30.07,South,183,6.0,6.0,50,0.00,,,0.00,Wunderground v.1.15,2013-03-08 09:56:00,
2013-03-08 04:02:00,50.1,32.7,30.08,South,173,5.0,5.0,51,0.00,,,0.00,Wunderground v.1.15,2013-03-08 10:02:00,
2013-03-08 04:08:00,49.9,33.0,30.08,South,180,4.0,9.0,52,0.00,,,0.00,Wunderground v.1.15,2013-03-08 10:08:00,
2013-03-08 04:14:00,49.6,32.7,30.08,SE,145,5.0,6.0,52,0.00,,,0.00,Wunderground v.1.15,2013-03-08 10:14:00,
2013-03-08 04:20:00,49.5,32.6,30.08,SE,141,4.0,4.0,52,0.00,,,0.00,Wunderground v.1.15,2013-03-08 10:20:00,
2013-03-08 04:26:00,49.3,32.9,30.08,SSE,159,4.0,8.0,53,0.00,,,0.00,Wunderground v.1.15,2013-03-08 10:26:00,
2013-03-08 04:32:00,49.2,32.8,30.08,SSE,149,5.0,5.0,53,0.00,,,0.00,Wunderground v.1.15,2013-03-08 10:32:00,
2013-03-08 04:38:00,49.1,32.7,30.07,SE,129,4.0,7.0,53,0.00,,,0.00,Wunderground v.1.15,2013-03-08 10:38:00,
2013-03-08 04:44:00,49.1,32.7,30.07,ESE,117,5.0,6.0,53,0.00,,,0.00,Wunderground v.1.15,2013-03-08 10:44:00,
2013-03-08 04:50:00,49.1,32.7,30.07,SE,144,6.0,6.0,53,0.00,,,0.00,Wunderground v.1.15,2013-03-08 10:50:00,
2013-03-08 04:56:00,49.1,32.7,30.08,SE,132,4.0,8.0,53,0.00,,,0.00,Wunderground v.1.15,2013-03-08 10:56:00,
2013-03-08 05:02:00,49.1,32.7,30.07,ESE,118,4.0,6.0,53,0.00,,,0.00,Wunderground v.1.15,2013-03-08 11:02:00,
2013-03-08 05:08:00,49.1,32.7,30.08,SE,136,4.0,7.0,53,0.00,,,0.00,Wunderground v.1.15,2013-03-08 11:08:00,
2013-03-08 05:14:00,49.1,32.7,30.08,SE,126,4.0,6.0,53,0.00,,,0.00,Wunderground v.1.15,2013-03-08 11:14:00,
2013-03-08 05:20:00,49.1,32.7,30.08,SSE,162,4.0,4.0,53,0.00,,,0.00,Wunderground v.1.15,2013-03-08 11:20:00,
2013-03-08 05:26:00,49.1,32.7,30.08,ESE,123,5.0,5.0,53,0.00,,,0.00,Wunderground v.1.15,2013-03-08 11:26:00,
2013-03-08 05:32:00,49.0,32.6,30.08,SE,128,5.0,5.0,53,0.00,,,0.00,Wunderground v.1.15,2013-03-08 11:32:00,
2013-03-08 05:38:00,49.0,33.1,30.08,SSE,163,4.0,7.0,54,0.00,,,0.00,Wunderground v.1.15,2013-03-08 11:38:00,
2013-03-08 05:44:00,48.8,32.9,30.08,SE,125,4.0,4.0,54,0.00,,,0.00,Wunderground v.1.15,2013-03-08 11:44:00,
2013-03-08 05:50:00,48.7,33.2,30.09,SSE,156,4.0,4.0,55,0.00,,,0.00,Wunderground v.1.15,2013-03-08 11:50:00,
2013-03-08 05:56:00,48.5,33.1,30.09,ESE,116,4.0,4.0,55,0.00,,,0.00,Wunderground v.1.15,2013-03-08 11:56:00,
2013-03-08 06:02:00,48.3,33.3,30.09,SSE,157,5.0,5.0,56,0.00,,,0.00,Wunderground v.1.15,2013-03-08 12:02:00,
2013-03-08 06:08:00,48.0,33.0,30.08,South,170,6.0,7.0,56,0.00,,,0.00,Wunderground v.1.15,2013-03-08 12:08:00,
2013-03-08 06:14:00,47.9,32.9,30.08,SSE,158,6.0,6.0,56,0.00,,,0.00,Wunderground v.1.15,2013-03-08 12:14:00,
2013-03-08 06:20:00,47.8,33.3,30.08,SSE,152,6.0,6.0,57,0.00,,,0.00,Wunderground v.1.15,2013-03-08 12:20:00,
2013-03-08 06:26:00,47.8,33.3,30.08,SSE,149,5.0,6.0,57,0.00,,,0.00,Wunderground v.1.15,2013-03-08 12:26:00,
2013-03-08 06:32:00,47.7,33.2,30.09,SSE,157,5.0,6.0,57,0.00,,,0.00,Wunderground v.1.15,2013-03-08 12:32:00,
2013-03-08 06:38:00,47.7,33.2,30.09,SE,130,5.0,13.0,57,0.00,,,0.00,Wunderground v.1.15,2013-03-08 12:38:00,
2013-03-08 06:44:00,47.7,33.2,30.10,South,173,5.0,9.0,57,0.00,,,0.00,Wunderground v.1.15,2013-03-08 12:44:00,
2013-03-08 06:50:00,47.8,33.3,30.10,SE,130,4.0,4.0,57,0.00,,,0.00,Wunderground v.1.15,2013-03-08 12:50:00,
2013-03-08 06:56:00,47.8,33.7,30.10,SSW,196,5.0,7.0,58,0.00,,,0.00,Wunderground v.1.15,2013-03-08 12:56:00,
2013-03-08 07:02:00,47.8,33.3,30.10,SSE,152,6.0,6.0,57,0.00,,,0.00,Wunderground v.1.15,2013-03-08 13:02:00,
2013-03-08 07:08:00,47.8,33.7,30.10,South,169,5.0,6.0,58,0.00,,,0.00,Wunderground v.1.15,2013-03-08 13:08:00,
2013-03-08 07:14:00,47.8,33.7,30.10,SSE,153,6.0,11.0,58,0.00,,,0.00,Wunderground v.1.15,2013-03-08 13:14:00,
2013-03-08 07:20:00,47.8,33.7,30.10,South,174,6.0,6.0,58,0.00,,,0.00,Wunderground v.1.15,2013-03-08 13:20:00,
2013-03-08 07:26:00,47.8,33.7,30.10,SE,144,6.0,13.0,58,0.00,,,0.00,Wunderground v.1.15,2013-03-08 13:26:00,
2013-03-08 07:32:00,47.8,33.7,30.10,SSW,197,6.0,10.0,58,0.00,,,0.00,Wunderground v.1.15,2013-03-08 13:32:00,
2013-03-08 07:38:00,47.8,33.7,30.10,SSE,157,7.0,10.0,58,0.00,,,0.00,Wunderground v.1.15,2013-03-08 13:38:00,
2013-03-08 07:44:00,47.8,33.7,30.11,SSE,156,8.0,13.0,58,0.00,,,0.00,Wunderground v.1.15,2013-03-08 13:44:00,
2013-03-08 07:54:00,47.9,33.8,30.11,South,190,7.0,7.0,58,0.00,,,0.00,Wunderground v.1.15,2013-03-08 13:54:00,
2013-03-08 08:00:00,48.1,34.0,30.12,SE,144,6.0,6.0,58,0.00,,,0.00,Wunderground v.1.15,2013-03-08 14:00:00,
2013-03-08 08:06:00,48.2,34.1,30.11,SSE,167,7.0,8.0,58,0.00,,,0.00,Wunderground v.1.15,2013-03-08 14:06:00,
2013-03-08 08:12:00,48.3,34.2,30.11,SSE,154,7.0,14.0,58,0.00,,,0.00,Wunderground v.1.15,2013-03-08 14:12:00,
2013-03-08 08:18:00,48.3,33.8,30.11,SE,144,8.0,14.0,57,0.00,,,0.00,Wunderground v.1.15,2013-03-08 14:18:00,
2013-03-08 08:24:00,48.5,33.9,30.11,South,182,8.0,8.0,57,0.00,,,0.00,Wunderground v.1.15,2013-03-08 14:24:00,
2013-03-08 08:30:00,48.7,34.1,30.11,SSE,168,7.0,7.0,57,0.00,,,0.00,Wunderground v.1.15,2013-03-08 14:30:00,
2013-03-08 08:36:00,49.2,34.6,30.11,SE,145,5.0,7.0,57,0.00,,,0.00,Wunderground v.1.15,2013-03-08 14:36:00,
2013-03-08 08:42:00,49.3,34.3,30.11,SSE,149,5.0,7.0,56,0.00,,,0.00,Wunderground v.1.15,2013-03-08 14:42:00,
2013-03-08 08:48:00,49.2,34.6,30.11,SSW,199,8.0,16.0,57,0.00,,,0.00,Wunderground v.1.15,2013-03-08 14:48:00,
2013-03-08 09:10:00,50.1,35.0,30.12,South,171,7.0,7.0,56,0.00,,,0.00,Wunderground v.1.15,2013-03-08 15:10:00,
2013-03-08 09:16:00,50.1,35.0,30.12,SSE,163,8.0,11.0,56,0.00,,,0.00,Wunderground v.1.15,2013-03-08 15:16:00,
2013-03-08 09:22:00,50.5,35.4,30.12,SSW,203,5.0,6.0,56,0.00,,,0.00,Wunderground v.1.15,2013-03-08 15:22:00,
2013-03-08 09:28:00,51.1,35.5,30.12,SSW,192,5.0,10.0,55,0.00,,,0.00,Wunderground v.1.15,2013-03-08 15:28:00,
2013-03-08 09:40:00,51.8,36.1,30.11,South,187,6.0,6.0,55,0.00,,,0.00,Wunderground v.1.15,2013-03-08 15:40:00,
2013-03-08 09:46:00,51.8,36.1,30.11,South,179,7.0,7.0,55,0.00,,,0.00,Wunderground v.1.15,2013-03-08 15:46:00,
2013-03-08 09:52:00,52.0,36.3,30.10,South,180,6.0,6.0,55,0.00,,,0.00,Wunderground v.1.15,2013-03-08 15:52:00,
2013-03-08 09:58:00,52.0,36.8,30.11,South,186,6.0,6.0,56,0.00,,,0.00,Wunderground v.1.15,2013-03-08 15:58:00,
2013-03-08 10:04:00,52.2,37.0,30.11,South,175,5.0,10.0,56,0.00,,,0.00,Wunderground v.1.15,2013-03-08 16:04:00,
2013-03-08 10:10:00,52.4,37.2,30.11,South,184,5.0,7.0,56,0.00,,,0.00,Wunderground v.1.15,2013-03-08 16:10:00,
2013-03-08 10:16:00,52.6,37.8,30.11,South,182,6.0,9.0,57,0.00,,,0.00,Wunderground v.1.15,2013-03-08 16:16:00,
2013-03-08 10:22:00,52.5,37.7,30.11,SE,140,7.0,8.0,57,0.00,,,0.00,Wunderground v.1.15,2013-03-08 16:22:00,
2013-03-08 10:28:00,52.6,37.8,30.11,South,184,5.0,9.0,57,0.00,,,0.00,Wunderground v.1.15,2013-03-08 16:28:00,
2013-03-08 10:34:00,52.5,38.1,30.11,SSW,203,6.0,13.0,58,0.00,,,0.00,Wunderground v.1.15,2013-03-08 16:34:00,
2013-03-08 10:40:00,52.5,38.1,30.11,SSE,150,7.0,7.0,58,0.00,,,0.00,Wunderground v.1.15,2013-03-08 16:40:00,
2013-03-08 10:46:00,52.5,38.6,30.11,SSE,161,5.0,14.0,59,0.00,,,0.00,Wunderground v.1.15,2013-03-08 16:46:00,
2013-03-08 10:52:00,52.4,38.5,30.11,SSW,196,7.0,8.0,59,0.00,,,0.00,Wunderground v.1.15,2013-03-08 16:52:00,
2013-03-08 11:00:00,52.5,39.0,30.10,SSW,204,8.0,8.0,60,0.00,,,0.00,Wunderground v.1.15,2013-03-08 17:00:00,
2013-03-08 11:06:00,52.8,39.3,30.10,SE,140,6.0,8.0,60,0.00,,,0.00,Wunderground v.1.15,2013-03-08 17:06:00,
2013-03-08 11:12:00,52.9,39.4,30.11,South,175,6.0,7.0,60,0.00,,,0.00,Wunderground v.1.15,2013-03-08 17:12:00,
2013-03-08 11:18:00,52.8,39.3,30.10,South,178,7.0,8.0,60,0.00,,,0.00,Wunderground v.1.15,2013-03-08 17:18:00,
2013-03-08 11:24:00,53.1,39.6,30.10,SE,141,6.0,8.0,60,0.00,,,0.00,Wunderground v.1.15,2013-03-08 17:24:00,
2013-03-08 11:30:00,53.3,40.2,30.10,SSE,148,6.0,6.0,61,0.00,,,0.00,Wunderground v.1.15,2013-03-08 17:30:00,
2013-03-08 11:36:00,53.5,40.4,30.10,SSE,164,7.0,18.0,61,0.00,,,0.00,Wunderground v.1.15,2013-03-08 17:36:00,
2013-03-08 11:42:00,53.1,40.8,30.10,South,175,9.0,9.0,63,0.00,,,0.00,Wunderground v.1.15,2013-03-08 17:42:00,
2013-03-08 11:48:00,53.3,41.0,30.09,SSE,147,8.0,11.0,63,0.00,,,0.00,Wunderground v.1.15,2013-03-08 17:48:00,
2013-03-08 11:54:00,52.9,41.4,30.10,SSW,194,10.0,10.0,65,0.00,,,0.00,Wunderground v.1.15,2013-03-08 17:54:00,
2013-03-08 12:00:00,52.6,41.6,30.10,SE,145,10.0,10.0,66,0.00,,,0.00,Wunderground v.1.15,2013-03-08 18:00:00,
2013-03-08 12:06:00,52.2,41.6,30.10,South,182,8.0,10.0,67,0.00,,,0.00,Wunderground v.1.15,2013-03-08 18:06:00,
2013-03-08 12:12:00,51.7,41.1,30.09,South,178,9.0,14.0,67,0.00,,,0.00,Wunderground v.1.15,2013-03-08 18:12:00,
2013-03-08 12:18:00,51.6,41.4,30.09,SSW,196,10.0,14.0,68,0.00,,,0.00,Wunderground v.1.15,2013-03-08 18:18:00,
2013-03-08 12:24:00,51.5,41.3,30.09,SSE,160,9.0,10.0,68,0.00,,,0.00,Wunderground v.1.15,2013-03-08 18:24:00,
2013-03-08 12:30:00,51.4,41.2,30.08,ESE,118,8.0,8.0,68,0.00,,,0.00,Wunderground v.1.15,2013-03-08 18:30:00,
2013-03-08 12:36:00,51.4,41.9,30.08,WNW,292,7.0,10.0,70,0.00,,,0.00,Wunderground v.1.15,2013-03-08 18:36:00,
2013-03-08 12:42:00,51.5,42.0,30.08,SSE,149,6.0,7.0,70,0.00,,,0.00,Wunderground v.1.15,2013-03-08 18:42:00,
2013-03-08 12:48:00,51.4,41.9,30.08,South,172,7.0,14.0,70,0.00,,,0.00,Wunderground v.1.15,2013-03-08 18:48:00,
2013-03-08 12:54:00,51.3,41.8,30.07,SSE,162,8.0,12.0,70,0.00,,,0.00,Wunderground v.1.15,2013-03-08 18:54:00,
2013-03-08 13:00:00,51.4,41.9,30.07,SE,138,8.0,10.0,70,0.00,,,0.00,Wunderground v.1.15,2013-03-08 19:00:00,
2013-03-08 13:06:00,51.5,42.0,30.06,South,184,8.0,21.0,70,0.00,,,0.00,Wunderground v.1.15,2013-03-08 19:06:00,
2013-03-08 13:12:00,51.9,42.0,30.05,South,187,8.0,11.0,69,0.00,,,0.00,Wunderground v.1.15,2013-03-08 19:12:00,
2013-03-08 13:18:00,51.8,41.6,30.05,SE,130,9.0,12.0,68,0.00,,,0.00,Wunderground v.1.15,2013-03-08 19:18:00,
2013-03-08 13:24:00,51.9,41.7,30.05,South,182,9.0,11.0,68,0.00,,,0.00,Wunderground v.1.15,2013-03-08 19:24:00,
2013-03-08 13:30:00,52.0,41.8,30.05,South,186,8.0,8.0,68,0.00,,,0.00,Wunderground v.1.15,2013-03-08 19:30:00,
2013-03-08 13:36:00,52.2,42.0,30.04,South,173,8.0,9.0,68,0.00,,,0.00,Wunderground v.1.15,2013-03-08 19:36:00,
2013-03-08 13:42:00,52.6,42.3,30.03,SSE,164,6.0,7.0,68,0.00,,,0.00,Wunderground v.1.15,2013-03-08 19:42:00,
2013-03-08 13:54:00,53.1,42.0,30.03,SE,142,6.0,7.0,66,0.00,,,0.00,Wunderground v.1.15,2013-03-08 19:54:00,
2013-03-08 14:00:00,53.1,42.0,30.03,SSW,198,6.0,6.0,66,0.00,,,0.00,Wunderground v.1.15,2013-03-08 20:00:00,
2013-03-08 14:06:00,53.1,42.0,30.03,SE,142,7.0,7.0,66,0.00,,,0.00,Wunderground v.1.15,2013-03-08 20:06:00,
2013-03-08 14:12:00,53.4,42.3,30.02,South,183,6.0,9.0,66,0.00,,,0.00,Wunderground v.1.15,2013-03-08 20:12:00,
2013-03-08 14:18:00,53.7,42.2,30.01,SE,127,4.0,9.0,65,0.00,,,0.00,Wunderground v.1.15,2013-03-08 20:18:00,
2013-03-08 14:24:00,53.8,42.3,30.01,SSE,164,4.0,13.0,65,0.00,,,0.00,Wunderground v.1.15,2013-03-08 20:24:00,
2013-03-08 14:30:00,53.8,42.3,30.02,SSE,168,6.0,6.0,65,0.00,,,0.00,Wunderground v.1.15,2013-03-08 20:30:00,
2013-03-08 14:36:00,53.9,42.4,30.01,SSW,192,5.0,7.0,65,0.00,,,0.00,Wunderground v.1.15,2013-03-08 20:36:00,
2013-03-08 14:42:00,54.0,42.5,30.01,South,188,4.0,8.0,65,0.00,,,0.00,Wunderground v.1.15,2013-03-08 20:42:00,
2013-03-08 14:48:00,54.1,42.6,30.01,SSW,198,6.0,12.0,65,0.00,,,0.00,Wunderground v.1.15,2013-03-08 20:48:00,
2013-03-08 14:54:00,54.3,42.8,30.01,SSE,156,5.0,6.0,65,0.00,,,0.00,Wunderground v.1.15,2013-03-08 20:54:00,
2013-03-08 15:00:00,54.6,42.7,30.01,South,169,3.0,10.0,64,0.00,,,0.00,Wunderground v.1.15,2013-03-08 21:00:00,
2013-03-08 15:06:00,54.6,42.7,30.00,SSE,155,6.0,13.0,64,0.00,,,0.00,Wunderground v.1.15,2013-03-08 21:06:00,
2013-03-08 15:12:00,54.8,42.4,30.00,South,190,8.0,8.0,63,0.00,,,0.00,Wunderground v.1.15,2013-03-08 21:12:00,
2013-03-08 15:18:00,55.2,42.4,29.99,South,184,6.0,11.0,62,0.00,,,0.00,Wunderground v.1.15,2013-03-08 21:18:00,
2013-03-08 15:24:00,55.4,41.7,29.99,SE,130,7.0,12.0,60,0.00,,,0.00,Wunderground v.1.15,2013-03-08 21:24:00,
2013-03-08 15:30:00,55.7,41.6,29.99,SSW,196,6.0,6.0,59,0.00,,,0.00,Wunderground v.1.15,2013-03-08 21:30:00,
2013-03-08 15:36:00,55.8,41.7,29.99,SE,133,6.0,6.0,59,0.00,,,0.00,Wunderground v.1.15,2013-03-08 21:36:00,
2013-03-08 15:42:00,55.8,41.7,29.99,South,189,6.0,6.0,59,0.00,,,0.00,Wunderground v.1.15,2013-03-08 21:42:00,
2013-03-08 15:48:00,56.0,41.4,29.99,South,178,5.0,6.0,58,0.00,,,0.00,Wunderground v.1.15,2013-03-08 21:48:00,
2013-03-08 15:54:00,56.1,41.5,29.99,SSW,195,5.0,5.0,58,0.00,,,0.00,Wunderground v.1.15,2013-03-08 21:54:00,
2013-03-08 16:00:00,56.2,41.6,29.99,SSE,148,5.0,5.0,58,0.00,,,0.00,Wunderground v.1.15,2013-03-08 22:00:00,
2013-03-08 16:06:00,56.4,41.3,29.98,South,182,6.0,10.0,57,0.00,,,0.00,Wunderground v.1.15,2013-03-08 22:06:00,
2013-03-08 16:12:00,56.7,41.6,29.98,South,176,6.0,8.0,57,0.00,,,0.00,Wunderground v.1.15,2013-03-08 22:12:00,
2013-03-08 16:18:00,57.0,41.4,29.98,SE,137,5.0,8.0,56,0.00,,,0.00,Wunderground v.1.15,2013-03-08 22:18:00,
2013-03-08 16:24:00,57.2,41.6,29.98,SSE,163,6.0,11.0,56,0.00,,,0.00,Wunderground v.1.15,2013-03-08 22:24:00,
2013-03-08 16:30:00,57.4,41.4,29.98,SSW,192,5.0,7.0,55,0.00,,,0.00,Wunderground v.1.15,2013-03-08 22:30:00,
2013-03-08 16:36:00,57.5,41.4,29.98,South,191,5.0,10.0,55,0.00,,,0.00,Wunderground v.1.15,2013-03-08 22:36:00,
2013-03-08 16:42:00,57.6,41.5,29.98,SSE,155,5.0,10.0,55,0.00,,,0.00,Wunderground v.1.15,2013-03-08 22:42:00,
2013-03-08 16:48:00,57.7,41.2,29.97,SSW,196,6.0,10.0,54,0.00,,,0.00,Wunderground v.1.15,2013-03-08 22:48:00,
2013-03-08 16:54:00,57.7,41.2,29.98,South,173,7.0,7.0,54,0.00,,,0.00,Wunderground v.1.15,2013-03-08 22:54:00,
2013-03-08 17:00:00,57.7,41.2,29.98,SSE,154,6.0,6.0,54,0.00,,,0.00,Wunderground v.1.15,2013-03-08 23:00:00,
2013-03-08 17:06:00,57.8,41.3,29.98,South,176,5.0,12.0,54,0.00,,,0.00,Wunderground v.1.15,2013-03-08 23:06:00,
2013-03-08 17:12:00,57.8,41.3,29.98,WSW,240,5.0,5.0,54,0.00,,,0.00,Wunderground v.1.15,2013-03-08 23:12:00,
2013-03-08 17:18:00,57.8,41.3,29.98,SE,140,5.0,11.0,54,0.00,,,0.00,Wunderground v.1.15,2013-03-08 23:18:00,
2013-03-08 17:24:00,57.8,41.3,29.98,South,183,5.0,6.0,54,0.00,,,0.00,Wunderground v.1.15,2013-03-08 23:24:00,
2013-03-08 17:30:00,57.9,41.3,29.98,South,182,6.0,8.0,54,0.00,,,0.00,Wunderground v.1.15,2013-03-08 23:30:00,
2013-03-08 17:36:00,57.9,41.3,29.98,South,178,5.0,8.0,54,0.00,,,0.00,Wunderground v.1.15,2013-03-08 23:36:00,
2013-03-08 17:42:00,58.0,41.4,29.97,South,169,4.0,6.0,54,0.00,,,0.00,Wunderground v.1.15,2013-03-08 23:42:00,
2013-03-08 17:48:00,58.1,41.5,29.97,SSE,150,5.0,6.0,54,0.00,,,0.00,Wunderground v.1.15,2013-03-08 23:48:00,
2013-03-08 17:54:00,58.2,41.1,29.97,South,174,6.0,8.0,53,0.00,,,0.00,Wunderground v.1.15,2013-03-08 23:54:00,
2013-03-08 18:00:00,58.2,41.1,29.97,SSE,163,4.0,7.0,53,0.00,,,0.00,Wunderground v.1.15,2013-03-09 00:00:00,
2013-03-08 18:06:00,58.4,40.8,29.97,SSW,199,5.0,10.0,52,0.00,,,0.00,Wunderground v.1.15,2013-03-09 00:06:00,
2013-03-08 18:12:00,58.4,40.3,29.96,South,179,7.0,7.0,51,0.00,,,0.00,Wunderground v.1.15,2013-03-09 00:12:00,
2013-03-08 18:24:00,58.6,40.5,29.96,South,176,6.0,6.0,51,0.00,,,0.00,Wunderground v.1.15,2013-03-09 00:24:00,
2013-03-08 18:30:00,58.6,40.0,29.96,South,186,6.0,6.0,50,0.00,,,0.00,Wunderground v.1.15,2013-03-09 00:30:00,
2013-03-08 18:36:00,58.6,40.0,29.96,South,176,5.0,5.0,50,0.00,,,0.00,Wunderground v.1.15,2013-03-09 00:36:00,
2013-03-08 18:42:00,58.6,39.5,29.97,South,183,5.0,9.0,49,0.00,,,0.00,Wunderground v.1.15,2013-03-09 00:42:00,
2013-03-08 18:48:00,58.7,39.6,29.97,SE,130,6.0,12.0,49,0.00,,,0.00,Wunderground v.1.15,2013-03-09 00:48:00,
2013-03-08 18:54:00,58.7,39.0,29.96,SSE,167,7.0,12.0,48,0.00,,,0.00,Wunderground v.1.15,2013-03-09 00:54:00,
2013-03-08 19:00:00,58.8,39.1,29.97,ESE,111,6.0,8.0,48,0.00,,,0.00,Wunderground v.1.15,2013-03-09 01:00:00,
2013-03-08 19:06:00,58.8,39.1,29.97,South,184,5.0,8.0,48,0.00,,,0.00,Wunderground v.1.15,2013-03-09 01:06:00,
2013-03-08 19:12:00,58.7,39.0,29.97,South,176,5.0,9.0,48,0.00,,,0.00,Wunderground v.1.15,2013-03-09 01:12:00,
2013-03-08 19:18:00,58.8,39.1,29.97,South,172,7.0,10.0,48,0.00,,,0.00,Wunderground v.1.15,2013-03-09 01:18:00,
2013-03-08 19:24:00,58.8,39.1,29.97,South,176,7.0,17.0,48,0.00,,,0.00,Wunderground v.1.15,2013-03-09 01:24:00,
2013-03-08 19:30:00,58.8,39.1,29.97,South,173,6.0,6.0,48,0.00,,,0.00,Wunderground v.1.15,2013-03-09 01:30:00,
2013-03-08 19:36:00,58.8,39.1,29.97,SSE,157,6.0,10.0,48,0.00,,,0.00,Wunderground v.1.15,2013-03-09 01:36:00,
2013-03-08 19:44:00,58.8,39.1,29.97,South,186,5.0,5.0,48,0.00,,,0.00,Wunderground v.1.15,2013-03-09 01:44:00,
2013-03-08 19:50:00,58.7,39.0,29.97,South,182,4.0,6.0,48,0.00,,,0.00,Wunderground v.1.15,2013-03-09 01:50:00,
2013-03-08 19:56:00,58.6,39.0,29.97,South,188,4.0,9.0,48,0.00,,,0.00,Wunderground v.1.15,2013-03-09 01:56:00,
2013-03-08 20:02:00,58.5,38.9,29.98,SSE,153,4.0,5.0,48,0.00,,,0.00,Wunderground v.1.15,2013-03-09 02:02:00,
2013-03-08 20:08:00,58.4,38.8,29.98,SSE,165,5.0,10.0,48,0.00,,,0.00,Wunderground v.1.15,2013-03-09 02:08:00,
2013-03-08 20:14:00,58.3,38.7,29.98,SSE,166,5.0,7.0,48,0.00,,,0.00,Wunderground v.1.15,2013-03-09 02:14:00,
2013-03-08 20:20:00,58.3,38.7,29.98,SSE,157,5.0,13.0,48,0.00,,,0.00,Wunderground v.1.15,2013-03-09 02:20:00,
2013-03-08 20:26:00,58.2,38.6,29.98,South,179,5.0,13.0,48,0.00,,,0.00,Wunderground v.1.15,2013-03-09 02:26:00,
2013-03-08 20:32:00,58.2,39.1,29.98,South,178,5.0,10.0,49,0.00,,,0.00,Wunderground v.1.15,2013-03-09 02:32:00,
2013-03-08 20:38:00,58.1,39.0,29.99,South,185,5.0,10.0,49,0.00,,,0.00,Wunderground v.1.15,2013-03-09 02:38:00,
2013-03-08 20:44:00,58.0,38.9,29.98,South,185,5.0,10.0,49,0.00,,,0.00,Wunderground v.1.15,2013-03-09 02:44:00,
2013-03-08 20:50:00,58.0,38.9,29.98,SSE,161,5.0,5.0,49,0.00,,,0.00,Wunderground v.1.15,2013-03-09 02:50:00,
2013-03-08 20:56:00,57.9,38.8,29.98,SE,132,5.0,8.0,49,0.00,,,0.00,Wunderground v.1.15,2013-03-09 02:56:00,
2013-03-08 21:02:00,57.9,38.8,29.97,South,187,4.0,5.0,49,0.00,,,0.00,Wunderground v.1.15,2013-03-09 03:02:00,
2013-03-08 21:08:00,58.0,38.4,29.97,SSE,148,6.0,10.0,48,0.00,,,0.00,Wunderground v.1.15,2013-03-09 03:08:00,
2013-03-08 21:14:00,58.0,38.4,29.97,SSE,163,6.0,9.0,48,0.00,,,0.00,Wunderground v.1.15,2013-03-09 03:14:00,
2013-03-08 21:20:00,58.0,38.4,29.97,SSE,153,6.0,6.0,48,0.00,,,0.00,Wunderground v.1.15,2013-03-09 03:20:00,
2013-03-08 21:26:00,58.0,37.9,29.98,South,186,5.0,6.0,47,0.00,,,0.00,Wunderground v.1.15,2013-03-09 03:26:00,
2013-03-08 21:32:00,57.9,38.3,29.97,SE,144,4.0,5.0,48,0.00,,,0.00,Wunderground v.1.15,2013-03-09 03:32:00,
2013-03-08 21:38:00,58.0,38.4,29.97,SE,145,5.0,6.0,48,0.00,,,0.00,Wunderground v.1.15,2013-03-09 03:38:00,
2013-03-08 21:44:00,58.0,38.4,29.97,SSE,167,5.0,10.0,48,0.00,,,0.00,Wunderground v.1.15,2013-03-09 03:44:00,
2013-03-08 21:50:00,57.9,38.3,29.97,SSE,163,4.0,5.0,48,0.00,,,0.00,Wunderground v.1.15,2013-03-09 03:50:00,
2013-03-08 21:56:00,58.1,38.0,29.97,South,179,7.0,10.0,47,0.00,,,0.00,Wunderground v.1.15,2013-03-09 03:56:00,
2013-03-08 22:02:00,58.2,38.1,29.97,SE,146,7.0,7.0,47,0.00,,,0.00,Wunderground v.1.15,2013-03-09 04:02:00,
2013-03-08 22:08:00,58.2,38.1,29.96,SW,218,7.0,7.0,47,0.00,,,0.00,Wunderground v.1.15,2013-03-09 04:08:00,
2013-03-08 22:14:00,58.3,38.1,29.96,SE,146,8.0,8.0,47,0.00,,,0.00,Wunderground v.1.15,2013-03-09 04:14:00,
2013-03-08 22:20:00,58.4,38.2,29.95,SE,127,8.0,8.0,47,0.00,,,0.00,Wunderground v.1.15,2013-03-09 04:20:00,
2013-03-08 22:26:00,58.5,38.3,29.95,South,184,8.0,16.0,47,0.00,,,0.00,Wunderground v.1.15,2013-03-09 04:26:00,
2013-03-08 22:32:00,58.6,38.4,29.94,South,173,9.0,18.0,47,0.00,,,0.00,Wunderground v.1.15,2013-03-09 04:32:00,
2013-03-08 22:40:00,58.5,38.3,29.93,SSE,152,8.0,8.0,47,0.00,,,0.00,Wunderground v.1.15,2013-03-09 04:40:00,
2013-03-08 22:46:00,58.5,38.3,29.93,South,176,8.0,11.0,47,0.00,,,0.00,Wunderground v.1.15,2013-03-09 04:46:00,
2013-03-08 22:52:00,58.6,38.4,29.93,SSE,159,9.0,9.0,47,0.00,,,0.00,Wunderground v.1.15,2013-03-09 04:52:00,
2013-03-08 22:58:00,58.6,38.4,29.93,SE,145,7.0,10.0,47,0.00,,,0.00,Wunderground v.1.15,2013-03-09 04:58:00,
2013-03-08 23:00:00,58.6,38.4,29.93,SSE,163,7.0,7.0,47,0.00,,,0.00,Wunderground v.1.15,2013-03-09 05:00:00,
2013-03-08 23:02:00,58.7,38.5,29.92,SE,144,7.0,11.0,47,0.00,,,0.00,Wunderground v.1.15,2013-03-09 05:02:00,
2013-03-08 23:04:00,58.6,38.4,29.92,South,184,8.0,11.0,47,0.00,,,0.00,Wunderground v.1.15,2013-03-09 05:04:00,
2013-03-08 23:10:00,58.6,38.4,29.92,SSW,198,8.0,10.0,47,0.00,,,0.00,Wunderground v.1.15,2013-03-09 05:10:00,
2013-03-08 23:16:00,58.6,38.4,29.92,SE,134,6.0,10.0,47,0.00,,,0.00,Wunderground v.1.15,2013-03-09 05:16:00,
2013-03-08 23:22:00,58.7,38.5,29.92,SSE,159,7.0,9.0,47,0.00,,,0.00,Wunderground v.1.15,2013-03-09 05:22:00,
2013-03-08 23:28:00,58.7,38.5,29.91,SSE,166,7.0,11.0,47,0.00,,,0.00,Wunderground v.1.15,2013-03-09 05:28:00,
2013-03-08 23:34:00,58.8,38.6,29.91,South,169,8.0,8.0,47,0.00,,,0.00,Wunderground v.1.15,2013-03-09 05:34:00,
2013-03-08 23:40:00,58.8,38.6,29.91,South,180,9.0,9.0,47,0.00,,,0.00,Wunderground v.1.15,2013-03-09 05:40:00,
2013-03-08 23:46:00,58.8,39.1,29.91,SSW,195,7.0,10.0,48,0.00,,,0.00,Wunderground v.1.15,2013-03-09 05:46:00,
2013-03-08 23:52:00,58.8,39.1,29.91,South,187,6.0,7.0,48,0.00,,,0.00,Wunderground v.1.15,2013-03-09 05:52:00,
2013-03-08 23:58:00,58.8,39.1,29.91,SE,144,6.0,14.0,48,0.00,,,0.00,Wunderground v.1.15,2013-03-09 05:58:00,